Location: City of Britt
(43.0975°N, 93.8032°W)
Time: 06:02:16
(UTC+00:00)

Daily predictions for brighter satellites

Satellite Brightness Start Highest point End
(mag) Time Altitude Azimuth Time Altitude Azimuth Time Altitude Azimuth
CBERS-1 4.5 12:00:50 10° NNE 12:05:56 66° ESE 12:11:00 10° S
Cosmos 2237 Rocket 3.8 12:06:51 13° WNW 12:08:00 14° NW 12:10:57 10° NNW
Cosmos 2056 Rocket 4.5 12:04:08 10° WSW 12:08:38 26° WNW 12:13:09 10° N
Cosmos 1025 Rocket 3.0 12:05:51 10° S 12:10:11 83° W 12:14:35 10° N
Cosmos 2297 3.7 12:07:19 10° NNW 12:12:55 65° WSW 12:18:26 10° S
Lacrosse 5 rocket 2.4 12:12:06 10° NNW 12:15:03 28° NNE 12:17:57 10° E
Cosmos 1484 Rocket 2.5 12:12:35 10° N 12:16:05 63° WNW 12:19:32 10° SSW
Cosmos 1674 Rocket 3.7 12:11:54 10° SSW 12:16:12 50° WNW 12:20:32 10° N
Cosmos 1943 3.2 12:11:26 10° SSW 12:17:03 86° WNW 12:22:42 10° NNE
Cosmos 1072 Rocket 4.5 12:11:06 10° NNW 12:17:10 64° W 12:23:15 10° S
Cosmos 2369 Rocket 2.3 12:12:13 10° NNW 12:17:48 58° WSW 12:23:22 10° S
Cosmos 1400 Rocket 3.0 12:14:28 10° NNW 12:17:58 42° W 12:21:25 10° SSW
IRS-1D 4.3 12:16:31 10° N 12:20:39 28° WNW 12:24:47 10° WSW
USA 229 DEB 3.7 12:15:03 10° WSW 12:20:46 48° NW 12:27:12 10° NNE
USA 229 3.7 12:15:16 10° WSW 12:20:58 49° NW 12:27:25 10° NNE
BREEZE-M DEB (TANK) 3.3 12:19:26 10° SW 12:21:38 43° SE 12:24:35 10° ENE
USA 267 3.9 12:15:56 10° NE 12:21:48 37° NNW 12:27:39 10° W
Helios 1A Rocket 3.8 12:21:07 10° SSW 12:23:43 21° W 12:26:21 10° NW
DMSP B5D1-3 4.5 12:18:51 10° S 12:23:56 76° WSW 12:29:04 10° NNW
NOSS 3-2 (A) 4.5 12:17:37 10° NNW 12:25:00 67° NE 12:33:51 10° SE
Lacrosse 4 Rocket 3.0 12:22:09 10° N 12:25:39 29° NE 12:29:06 10° ESE
Cosmos 1812 3.9 12:25:46 11° WNW 12:26:51 13° W 12:28:16 10° WSW
Cosmos 2221 Rocket 3.7 12:23:31 10° SSW 12:27:59 60° W 12:32:28 10° N
Cosmos 968 Rocket 3.9 12:27:24 10° NNW 12:32:21 43° WSW 12:37:15 10° S
Cosmos 1455 Rocket 3.4 12:31:25 10° N 12:35:46 71° E 12:40:06 10° SSE
Cosmos 2151 Rocket 4.3 12:32:23 10° NNW 12:36:25 33° W 12:40:24 10° SSW
Cosmos 1741 Rocket 4.2 12:31:42 10° NNW 12:36:53 54° WSW 12:42:00 10° S
ATLAS 3B R/B 3.4 12:34:56 10° WSW 12:42:06 43° NW 12:49:33 10° NNE
Cosmos 2233 Rocket 4.1 23:11:06 10° S 23:17:13 58° E 23:23:24 10° NNE
CORIOLIS 4.2 23:16:11 10° SSE 23:21:27 61° ENE 23:26:44 10° N
CBERS-1 4.3 23:16:39 10° S 23:21:45 79° WSW 23:26:54 10° NNW
ATLAS 2AS CENTAUR R/B 4.5 23:19:07 10° NNW 23:22:13 13° N 23:25:19 10° NE
ISS -3.0 23:21:50 10° SSW 23:24:58 40° SE 23:28:08 10° ENE
Cosmos 407 Rocket 4.2 23:20:57 10° SSE 23:25:32 32° E 23:30:06 10° NE
Cosmos 1908 Rocket 4.1 23:21:14 10° SSW 23:25:36 63° W 23:30:01 10° N
CZ-2D R/B 3.3 23:24:25 10° SE 23:27:19 35° ENE 23:30:16 10° N
Cosmos 2082 Rocket 3.5 23:23:58 10° N 23:27:49 18° NE 23:31:39 10° E
Cosmos 1943 Rocket 2.9 23:24:57 10° SSE 23:29:53 33° ESE 23:34:49 10° NE
Cosmos 2278 Rocket 3.0 23:25:23 10° SSE 23:30:17 31° ESE 23:35:12 10° NE
Cosmos 1975 Rocket 3.4 23:27:55 10° N 23:32:04 43° ENE 23:36:14 10° SSE
Aureole 3 Rocket 3.9 23:30:30 10° SE 23:32:26 16° E 23:34:21 10° NE
IRS-1C 4.2 23:27:44 10° SSE 23:32:57 60° ENE 23:38:11 10° N
ATLAS 5 CENTAUR R/B 1.9 23:29:52 10° NNW 23:34:16 58° NE 23:39:42 10° SE
Cosmos 921 Rocket 4.3 23:30:30 10° SW 23:34:35 41° WNW 23:38:47 10° N
Iridium 4 Rocket 4.4 23:30:56 10° SSW 23:36:00 51° W 23:40:40 10° N
COSMO-SKYMED 1 4.0 23:36:34 10° NE 23:39:18 17° E 23:42:01 10° SE
MOS 1 Rocket 3.7 23:37:26 10° SE 23:41:18 34° ENE 23:45:19 10° N
SAR-Lupe-1 4.0 23:38:01 10° SSE 23:41:32 65° ENE 23:45:05 10° N
SKYMED 2 4.5 23:39:59 10° NE 23:43:46 28° E 23:47:30 10° SSE
USA 215 3.3 23:37:13 10° SE 23:43:47 90° NE 23:50:22 10° NW
Helios 1A Rocket 4.1 23:43:02 14° ENE 23:44:16 16° E 23:46:27 10° SE
UNK 4.0 23:39:47 10° N 23:44:24 74° WNW 23:48:59 10° SSW
RESURS DK-1 3.0 23:49:54 10° N 23:53:29 30° NE 23:57:03 10° ESE
SAR-Lupe-4 3.8 23:50:09 10° S 23:53:42 73° WSW 23:57:18 10° NNW
